STARLINK-34609, 64768

Orbit data source: Space-Track

STARLINK-34609, 64768 is a payload satellite owned by SpaceX/Seattle (US) in LEO that was launched on Tue, 08 Jul 2025 UTC via an FALCON 9 launch vehicle from the Air Force Eastern Test Range (AFETR). Payload-class satellites include a variety of spacecraft equipped with specific instruments for various scientific and technological missions. These include communications satellites like Starlink; space stations such as the ISS; scientific satellites like the Hubble; Earth observation satellites from companies like Planet Labs, Umbra, and HawkEye 360; GPS; miniature CubeSats for education and research; and military/defense satellites.

Loading next visibility...
Identifier
64768, 2025-147P
Orbit
LEO
Country
Flag of USUS
Related business
Manufacturer
SpaceX/Seattle
Mission
Operational Commercial Communications
Bus & Motor
STARLINK V2MO, Unknown motor
Mass
575 kg wet, ~530 kg dry
Launch date (UTC)
2025-07-08 (1 year ago)
Launch vehicle
FALCON 9
Launch site
Air Force Eastern Test Range (AFETR)
Object type
Payload
Rocket body
Debris
Shape & HBR
Box + 1 Pan, 17.7 m
Radar Cross Section
41.120 m², Large (>1 m²)

Expand to show TLE details & history
Last TLE update: 16 hours ago

TLE from 16 hours ago
0 STARLINK-34609
1 64768U 25147P   26227.27873353  .00006160  00000-0  19329-3 0  9997
2 64768  53.1572 214.6804 0001085  86.7008 273.4119 15.34402185 63193
Epoch: 2026-08-15T06:41Z
TLE epoch observation values (Epoch: 2026-08-15T06:41:22.576Z)
Latitude
-0.00002°
Longitude
150.64442°
Altitude
463.554 km
Speed
7.636 km/s
True Right ascension
14h 18m 43s
True Declination
0° 00' 00"
Sunlit
Object was in daylight at epoch
Visualization orbit readout
Latitude
Unknown
Longitude
Unknown
Altitude
Unknown
Speed
Unknown
Apparent Right ascension
Unknown
Apparent Declination
Unknown
Sunlit
N/A
Visualization observer readout
Local Sidereal Time
13:34:03
Azimuth
Unknown
Elevation
Unknown
Doppler factor
Unknown
Orbital elements
Apogee altitude
463.696 km
Perigee altitude
462.212 km
Semi-major axis
6,841.091 km
Eccentricity
0.00011
Inclination
53.1572°
RAAN
214.6804°
Arg. of periapsis
86.7008°
True anomaly
273.39949°
Mean anomaly
273.4119°
Eccentric anomaly
273.40569°
Mean motion
3.83579 °/min
Orbital period
93.85 mins
BSTAR
0.00019329
Loading maneuver chart data...
Computing Atmospheric mass density...
Loading historical data...
Loading historical data...
Loading historical data...
Loading historical data...
Loading historical data...
Loading historical data...
Loading historical data...

Documentation

Showing up to 5 results
|